Location: La Brionne
(46.1728°N, 1.7849°E)
Time: 07:25:11
(UTC+00:00)

Meteor 2-10 Rocket - Pass Details

Date: 16 June 2021
Orbit: 734 x 885 km, 81.2° (Epoch: 02 August)

Event Time Altitude Azimuth Distance (km) Brightness Sun altitude
Rises 23:09:45 0° 343° (NNW) 3,233 8.3 -19.7°
Reaches altitude 10° 23:12:13 10° 336° (NNW) 2,286 7.1 -19.8°
Maximum altitude 23:17:01 42° 267° (W) 1,046 4.2 -19.9°
Enters shadow 23:18:55 30° 219° (SW) 1,315 4.3 -20.0°
